Home > Weather > Broken Hill > Past weeks

Flag for Australia Weather for the Past 2 Weeks in Broken Hill, New South Wales, Australia

Now
62 °F

Refreshingly cool.


Feels Like: 62 °F
Forecast: 52 / 71 °F
Wind: 9 mph from Northwest

Location: Yunta

Current Time: May 2, 2016 at 9:06:55 PM

Latest Report: May 2, 2016 at 7:30 PM


Visibility: N/A

Pressure: 29.94 "Hg

Humidity: 33%

Dew Point: 33 °F

Location of Broken HillLocation

Historic Weather in Broken Hill — Graph

°F

Broken Hill Temperature Yesterday

Maximum temperature yesterday: 68 °F (at 3:00 PM)
Minimum temperature yesterday: 43 °F (at 11:30 PM)
Average temperature yesterday: 55 °F

High & Low Weather Summary for the Past Weeks

 TemperatureHumidityPressure
High80 °F (Apr 27, 3:00 PM)93% (Apr 30, 2:30 AM)30.39 "Hg (Apr 30, 2:30 AM)
Low32 °F (Apr 24, 6:00 AM)19% (Apr 25, 3:00 PM)29.80 "Hg (Apr 30, 4:30 PM)
Average60 °F50%30.08 "Hg
* Reported Apr 17 8:30 PM — May 2 7:30 PM, Broken Hill, Weather by CustomWeather, © 2016

Note: Actual official high and low records may vary slightly from our data, if they occured in-between our weather recording intervals... More about our weather records

Advertising

Broken Hill Weather History for the Previous 24 Hours

Scroll right to see more
 ConditionsComfort  
Time TempWeatherWind HumidityBarometerVisibility
7:30 PM
Mon, May 2
62 °FRefreshingly cool.9 mph33%29.94 "HgN/A
6:00 PM63 °FMild.7 mph33%29.93 "HgN/A
5:30 PM66 °FMild.10 mph30%29.91 "HgN/A
4:30 PM69 °FMild.13 mph28%29.91 "HgN/A
3:00 PM70 °FMild.14 mph27%29.91 "HgN/A
1:30 PM68 °FMild.16 mph27%29.94 "HgN/A
10:30 AM65 °FMild.15 mph32%30.01 "HgN/A
9:00 AM59 °FRefreshingly cool.10 mph46%30.02 "HgN/A
7:30 AM43 °FQuite cool.2 mph72%30.03 "HgN/A
6:00 AM39 °FChilly.2 mph73%30.01 "HgN/A
5:30 AM40 °FChilly.6 mph73%30.00 "HgN/A
4:30 AM37 °FChilly.No wind67%30.01 "HgN/A
3:00 AM38 °FChilly.No wind68%30.01 "HgN/A
2:30 AM39 °FChilly.No wind69%30.02 "HgN/A
1:30 AM40 °FQuite cool.2 mph65%30.03 "HgN/A
12:00 AM42 °FQuite cool.No wind66%30.05 "HgN/A
11:30 PM
Sun, May 1
43 °FQuite cool.No wind63%30.06 "HgN/A
10:30 PM46 °FCool.1 mph62%30.07 "HgN/A
9:00 PM51 °FCool.5 mph58%30.07 "HgN/A
Weather by CustomWeather, © 2016

See weather overviewHow to use our weather pages